DLH2EM EGLL-EDDF

Flight info

Callsign DLH2EM
Flight time 1h 15m
Altitude 35000
Route BPK Q295 MATCH DCT REDFA DCT TACHA DCT NOLRU DCT DIXAT DIXAT1A
Aircraft A320/M-SDE3FGHIRWY/LB1

Departure

Time 2026-05-04 14:44
Airport London Heathrow Airport (EGLL)

Arrival

Time 2026-05-04 15:59
Airport Frankfurt Main Airport (EDDF)
Time Latitude Longitude Altitude Speed Heading
2026-05-04 14:11 51.46996 -0.44681 90 ft 0 kts 269°
2026-05-04 14:35 51.46996 -0.44669 86 ft 2 kts 269°
2026-05-04 14:35 51.46997 -0.44641 88 ft 3 kts 269°
2026-05-04 14:35 51.46997 -0.44609 86 ft 3 kts 273°
2026-05-04 14:36 51.46993 -0.44580 88 ft 3 kts 304°
2026-05-04 14:36 51.46981 -0.44560 89 ft 3 kts 340°
2026-05-04 14:36 51.46968 -0.44555 89 ft 1 kts 360°
2026-05-04 14:36 51.46953 -0.44554 87 ft 2 kts 360°
2026-05-04 14:37 51.46947 -0.44554 88 ft 0 kts 360°
2026-05-04 14:39 51.46972 -0.44555 86 ft 8 kts 359°
2026-05-04 14:40 51.47191 -0.44556 86 ft 20 kts 360°
2026-05-04 14:40 51.47333 -0.44561 86 ft 20 kts 359°
2026-05-04 14:40 51.47434 -0.44562 88 ft 13 kts 356°
2026-05-04 14:40 51.47510 -0.44629 88 ft 14 kts 308°
2026-05-04 14:41 51.47595 -0.44711 87 ft 15 kts 307°
2026-05-04 14:41 51.47624 -0.44776 89 ft 0 kts 313°
2026-05-04 14:42 51.47646 -0.44794 88 ft 8 kts 332°
2026-05-04 14:43 51.47714 -0.44862 90 ft 15 kts 325°
2026-05-04 14:43 51.47762 -0.45049 89 ft 26 kts 270°
2026-05-04 14:43 51.47763 -0.45717 85 ft 97 kts 269°
2026-05-04 14:43 51.47758 -0.47096 92 ft 152 kts 270°
2026-05-04 14:44 51.47758 -0.48909 494 ft 170 kts 271°
2026-05-04 14:44 51.47736 -0.50764 1335 ft 168 kts 270°
2026-05-04 14:44 51.47710 -0.52674 1805 ft 184 kts 270°
2026-05-04 14:44 51.47828 -0.54792 2123 ft 204 kts 290°
2026-05-04 14:45 51.48458 -0.56941 2463 ft 228 kts 299°
2026-05-04 14:45 51.49223 -0.59318 2955 ft 253 kts 298°
2026-05-04 14:45 51.50040 -0.61856 3747 ft 262 kts 298°
2026-05-04 14:45 51.51131 -0.64151 4651 ft 266 kts 324°
2026-05-04 14:46 51.52843 -0.65205 5511 ft 272 kts 351°
2026-05-04 14:46 51.54738 -0.65287 5886 ft 276 kts
2026-05-04 14:46 51.56465 -0.64062 5993 ft 276 kts 39°
2026-05-04 14:46 51.57734 -0.61746 6005 ft 278 kts 57°
2026-05-04 14:47 51.58811 -0.59178 6012 ft 278 kts 54°
2026-05-04 14:47 51.59801 -0.56490 6322 ft 286 kts 70°
2026-05-04 14:47 51.60493 -0.53523 7294 ft 285 kts 70°
2026-05-04 14:47 51.61198 -0.50540 8235 ft 287 kts 70°
2026-05-04 14:48 51.61900 -0.47582 9095 ft 292 kts 70°
2026-05-04 14:48 51.62623 -0.44526 9958 ft 297 kts 70°
2026-05-04 14:48 51.63370 -0.41362 10450 ft 315 kts 70°
2026-05-04 14:48 51.64171 -0.37963 10783 ft 338 kts 70°
2026-05-04 14:49 51.65026 -0.34323 11022 ft 361 kts 70°
2026-05-04 14:49 51.65917 -0.30522 11528 ft 371 kts 70°
2026-05-04 14:49 51.66836 -0.26593 12234 ft 377 kts 70°
2026-05-04 14:49 51.67752 -0.22656 12999 ft 381 kts 70°
2026-05-04 14:50 51.68681 -0.18660 13736 ft 385 kts 70°
2026-05-04 14:50 51.69618 -0.14623 14397 ft 389 kts 70°
2026-05-04 14:50 51.70558 -0.10560 15050 ft 392 kts 70°
2026-05-04 14:50 51.71510 -0.06436 15690 ft 395 kts 70°
2026-05-04 14:51 51.72461 -0.02312 16329 ft 398 kts 71°
2026-05-04 14:51 51.73426 0.01883 16915 ft 401 kts 71°
2026-05-04 14:51 51.74395 0.06098 17506 ft 404 kts 71°
2026-05-04 14:51 51.75367 0.10343 18123 ft 408 kts 71°
2026-05-04 14:52 51.76345 0.14627 18662 ft 411 kts 71°
2026-05-04 14:52 51.77273 0.18986 19154 ft 413 kts 76°
2026-05-04 14:52 51.77811 0.23541 19622 ft 415 kts 84°
2026-05-04 14:52 51.78345 0.28136 20087 ft 420 kts 77°
2026-05-04 14:53 51.79078 0.32727 20562 ft 424 kts 77°
2026-05-04 14:53 51.79842 0.37347 21032 ft 428 kts 76°
2026-05-04 14:53 51.80617 0.42010 21492 ft 431 kts 76°
2026-05-04 14:53 51.81387 0.46703 21971 ft 434 kts 77°
2026-05-04 14:54 51.82150 0.51444 22400 ft 438 kts 76°
2026-05-04 14:54 51.82906 0.56229 22851 ft 441 kts 77°
2026-05-04 14:54 51.83661 0.61055 23286 ft 444 kts 77°
2026-05-04 14:54 51.84414 0.65888 23679 ft 447 kts 77°
2026-05-04 14:55 51.85174 0.70768 24032 ft 450 kts 77°
2026-05-04 14:55 51.85943 0.75695 24409 ft 453 kts 77°
2026-05-04 14:55 51.86714 0.80648 24798 ft 455 kts 77°
2026-05-04 14:55 51.87488 0.85626 25175 ft 458 kts 77°
2026-05-04 14:56 51.88264 0.90639 25536 ft 460 kts 77°
2026-05-04 14:56 51.89039 0.95674 25902 ft 462 kts 77°
2026-05-04 14:56 51.89815 1.00739 26237 ft 465 kts 77°
2026-05-04 14:56 51.90595 1.05840 26580 ft 468 kts 77°
2026-05-04 14:57 51.91368 1.10910 26918 ft 470 kts 77°
2026-05-04 14:57 51.92157 1.16111 27249 ft 472 kts 77°
2026-05-04 14:57 51.92941 1.21287 27555 ft 474 kts 78°
2026-05-04 14:57 51.93725 1.26483 27866 ft 476 kts 78°
2026-05-04 14:58 51.94509 1.31706 28169 ft 478 kts 78°
2026-05-04 14:58 51.95294 1.36956 28482 ft 480 kts 78°
2026-05-04 14:58 51.96080 1.42203 28898 ft 479 kts 78°
2026-05-04 14:58 51.96864 1.47442 29312 ft 478 kts 78°
2026-05-04 14:59 51.97645 1.52672 29778 ft 476 kts 78°
2026-05-04 14:59 51.98419 1.57883 30213 ft 475 kts 79°
2026-05-04 14:59 51.99955 1.68284 30944 ft 474 kts 79°
2026-05-04 15:00 52.00708 1.73415 31266 ft 473 kts 79°
2026-05-04 15:00 52.01466 1.78611 31595 ft 473 kts 79°
2026-05-04 15:00 52.02222 1.83816 31925 ft 473 kts 79°
2026-05-04 15:01 52.03720 1.94183 32582 ft 474 kts 79°
2026-05-04 15:01 52.04474 1.99396 32879 ft 474 kts 79°
2026-05-04 15:01 52.05226 2.04612 33186 ft 475 kts 79°
2026-05-04 15:01 52.05974 2.09837 33514 ft 475 kts 79°
2026-05-04 15:02 52.06716 2.15054 33853 ft 474 kts 79°
2026-05-04 15:02 52.07458 2.20275 34166 ft 474 kts 79°
2026-05-04 15:02 52.08198 2.25494 34458 ft 474 kts 79°
2026-05-04 15:02 52.08939 2.30716 34748 ft 473 kts 79°
2026-05-04 15:03 52.09677 2.35927 34967 ft 474 kts 79°
2026-05-04 15:03 52.10410 2.41155 35012 ft 474 kts 79°
2026-05-04 15:03 52.11906 2.51628 35014 ft 477 kts 78°
2026-05-04 15:04 52.13801 2.62003 35010 ft 479 kts 74°
2026-05-04 15:04 52.15905 2.72303 35014 ft 480 kts 74°
2026-05-04 15:05 52.17940 2.82648 35010 ft 479 kts 75°
2026-05-04 15:05 52.19878 2.93029 35009 ft 479 kts 76°
2026-05-04 15:06 52.21794 3.03433 34986 ft 479 kts 76°
2026-05-04 15:07 52.24273 3.19184 35005 ft 475 kts 88°
2026-05-04 15:07 52.23910 3.29828 34996 ft 467 kts 106°
2026-05-04 15:08 52.21895 3.39698 34996 ft 461 kts 116°
2026-05-04 15:08 52.19573 3.49433 34990 ft 461 kts 116°
2026-05-04 15:09 52.17228 3.59164 34984 ft 461 kts 116°
2026-05-04 15:09 52.14873 3.68877 34988 ft 461 kts 116°
2026-05-04 15:10 52.11358 3.83378 34981 ft 462 kts 116°
2026-05-04 15:11 52.07824 3.97831 34963 ft 461 kts 117°
2026-05-04 15:11 52.05453 4.07469 34971 ft 461 kts 117°
2026-05-04 15:12 52.03088 4.17050 34971 ft 461 kts 117°
2026-05-04 15:12 52.00700 4.26675 34969 ft 461 kts 117°
2026-05-04 15:13 51.98312 4.36254 34970 ft 461 kts 117°
2026-05-04 15:13 51.95931 4.45747 34955 ft 461 kts 117°
2026-05-04 15:14 51.93528 4.55302 34973 ft 460 kts 117°
2026-05-04 15:14 51.91133 4.64807 34979 ft 459 kts 117°
2026-05-04 15:15 51.88730 4.74300 34985 ft 458 kts 117°
2026-05-04 15:15 51.86314 4.83759 34982 ft 458 kts 117°
2026-05-04 15:16 51.83077 4.96399 34964 ft 458 kts 117°
2026-05-04 15:17 51.79415 5.10646 34960 ft 459 kts 118°
2026-05-04 15:17 51.75742 5.24843 34961 ft 459 kts 118°
2026-05-04 15:18 51.73284 5.34269 34941 ft 459 kts 118°
2026-05-04 15:19 51.69614 5.48286 34943 ft 460 kts 118°
2026-05-04 15:19 51.65862 5.62527 34943 ft 460 kts 118°
2026-05-04 15:20 51.63357 5.71999 34958 ft 459 kts 118°
2026-05-04 15:20 51.60844 5.81447 34947 ft 459 kts 118°
2026-05-04 15:21 51.58333 5.90847 34954 ft 459 kts 118°
2026-05-04 15:22 51.54598 6.04781 34960 ft 459 kts 118°
2026-05-04 15:22 51.50757 6.18990 34962 ft 459 kts 119°
2026-05-04 15:23 51.48299 6.28377 34941 ft 460 kts 117°
2026-05-04 15:23 51.46003 6.37887 34948 ft 462 kts 116°
2026-05-04 15:24 51.41373 6.57028 34965 ft 463 kts 117°
2026-05-04 15:25 51.38999 6.66540 34967 ft 463 kts 117°
2026-05-04 15:26 51.35438 6.80748 33874 ft 460 kts 117°
2026-05-04 15:26 51.34261 6.85418 33603 ft 462 kts 117°
2026-05-04 15:26 51.31869 6.94906 33068 ft 463 kts 117°
2026-05-04 15:27 51.30700 6.99546 32805 ft 457 kts 117°
2026-05-04 15:27 51.28162 7.08544 32260 ft 427 kts 127°
2026-05-04 15:28 51.24574 7.15486 31728 ft 397 kts 144°
2026-05-04 15:28 51.22425 7.18198 31341 ft 386 kts 151°
2026-05-04 15:28 51.17854 7.22133 30439 ft 374 kts 158°
2026-05-04 15:29 51.15543 7.23954 29968 ft 372 kts 158°
2026-05-04 15:30 51.06507 7.31232 26882 ft 362 kts 156°
2026-05-04 15:30 50.99981 7.36672 25288 ft 352 kts 156°
2026-05-04 15:31 50.95726 7.40189 24255 ft 344 kts 156°
2026-05-04 15:31 50.93617 7.41924 23719 ft 341 kts 156°
2026-05-04 15:32 50.87378 7.47020 22313 ft 335 kts 156°
2026-05-04 15:32 50.83277 7.50362 21444 ft 331 kts 156°
2026-05-04 15:33 50.79234 7.53661 20627 ft 326 kts 156°
2026-05-04 15:34 50.73295 7.58493 19232 ft 319 kts 155°
2026-05-04 15:34 50.71343 7.60078 18753 ft 317 kts 155°
2026-05-04 15:34 50.67466 7.63229 17809 ft 314 kts 155°
2026-05-04 15:35 50.63626 7.66338 17096 ft 309 kts 155°
2026-05-04 15:35 50.61720 7.67878 16757 ft 307 kts 155°
2026-05-04 15:35 50.59825 7.69405 16414 ft 305 kts 155°
2026-05-04 15:36 50.56061 7.72430 15726 ft 302 kts 155°
2026-05-04 15:36 50.54192 7.73932 15390 ft 300 kts 155°
2026-05-04 15:36 50.52337 7.75424 15058 ft 299 kts 155°
2026-05-04 15:37 50.50493 7.76907 14739 ft 297 kts 155°
2026-05-04 15:37 50.48660 7.78376 14419 ft 295 kts 155°
2026-05-04 15:37 50.46851 7.79823 14109 ft 294 kts 155°
2026-05-04 15:37 50.45047 7.81268 13804 ft 293 kts 154°
2026-05-04 15:38 50.43299 7.82813 13461 ft 292 kts 147°
2026-05-04 15:38 50.41703 7.84769 13109 ft 292 kts 143°
2026-05-04 15:38 50.40149 7.86713 12761 ft 290 kts 144°
2026-05-04 15:38 50.38572 7.88669 12499 ft 289 kts 144°
2026-05-04 15:39 50.37008 7.90602 12252 ft 290 kts 144°
2026-05-04 15:39 50.35430 7.92551 11989 ft 289 kts 144°
2026-05-04 15:39 50.32311 7.96404 11485 ft 286 kts 145°
2026-05-04 15:40 50.30822 7.98239 11227 ft 286 kts 145°
2026-05-04 15:40 50.29248 8.00187 10820 ft 286 kts 145°
2026-05-04 15:40 50.27749 8.02038 10390 ft 287 kts 146°
2026-05-04 15:40 50.26238 8.04085 10018 ft 289 kts 137°
2026-05-04 15:41 50.25012 8.06512 9801 ft 289 kts 131°
2026-05-04 15:41 50.23827 8.08959 9703 ft 286 kts 132°
2026-05-04 15:41 50.22635 8.11383 9643 ft 285 kts 132°
2026-05-04 15:41 50.21437 8.13790 9570 ft 283 kts 132°
2026-05-04 15:42 50.20273 8.16132 9485 ft 282 kts 132°
2026-05-04 15:42 50.19088 8.18526 9359 ft 274 kts 132°
2026-05-04 15:42 50.17996 8.20737 9232 ft 266 kts 132°
2026-05-04 15:42 50.16862 8.23031 9099 ft 260 kts 133°
2026-05-04 15:43 50.15797 8.25183 8969 ft 251 kts 133°
2026-05-04 15:43 50.14766 8.27262 8819 ft 246 kts 131°
2026-05-04 15:43 50.13772 8.29258 8693 ft 252 kts 131°
2026-05-04 15:43 50.12646 8.31510 8564 ft 272 kts 131°
2026-05-04 15:44 50.11510 8.33840 8438 ft 277 kts 127°
2026-05-04 15:44 50.10709 8.36556 8312 ft 284 kts 109°
2026-05-04 15:44 50.10489 8.39581 8186 ft 289 kts 90°
2026-05-04 15:44 50.10887 8.42584 8059 ft 294 kts 73°
2026-05-04 15:45 50.11603 8.45561 7923 ft 294 kts 72°
2026-05-04 15:45 50.12296 8.48439 7788 ft 292 kts 72°
2026-05-04 15:45 50.13008 8.51409 7664 ft 292 kts 72°
2026-05-04 15:45 50.13690 8.54263 7543 ft 291 kts 72°
2026-05-04 15:46 50.14394 8.57210 7414 ft 290 kts 72°
2026-05-04 15:46 50.15074 8.60066 7301 ft 289 kts 72°
2026-05-04 15:46 50.15768 8.62988 7176 ft 289 kts 72°
2026-05-04 15:46 50.16457 8.65877 7050 ft 288 kts 72°
2026-05-04 15:47 50.17140 8.68748 6948 ft 288 kts 72°
2026-05-04 15:47 50.17812 8.71580 6810 ft 287 kts 72°
2026-05-04 15:47 50.18508 8.74521 6577 ft 285 kts 72°
2026-05-04 15:47 50.19182 8.77388 6159 ft 283 kts 72°
2026-05-04 15:48 50.19842 8.80189 5735 ft 282 kts 72°
2026-05-04 15:48 50.20496 8.82965 5364 ft 279 kts 71°
2026-05-04 15:48 50.21815 8.88547 5004 ft 278 kts 71°
2026-05-04 15:49 50.22472 8.91342 5010 ft 279 kts 71°
2026-05-04 15:49 50.23116 8.94098 5011 ft 279 kts 71°
2026-05-04 15:49 50.23783 8.96955 5011 ft 279 kts 71°
2026-05-04 15:49 50.24433 8.99737 5010 ft 279 kts 71°
2026-05-04 15:50 50.24956 9.02609 5006 ft 277 kts 87°
2026-05-04 15:50 50.24709 9.05488 5013 ft 272 kts 114°
2026-05-04 15:50 50.23690 9.07881 5010 ft 267 kts 140°
2026-05-04 15:50 50.22149 9.09324 5011 ft 264 kts 162°
2026-05-04 15:51 50.20389 9.09812 5001 ft 260 kts 184°
2026-05-04 15:51 50.18681 9.09111 5007 ft 259 kts 210°
2026-05-04 15:51 50.17391 9.07264 5008 ft 259 kts 237°
2026-05-04 15:51 50.16671 9.04757 5011 ft 261 kts 249°
2026-05-04 15:52 50.16086 9.02149 5006 ft 261 kts 249°
2026-05-04 15:52 50.15488 8.99530 5005 ft 261 kts 249°
2026-05-04 15:52 50.14883 8.96942 5005 ft 261 kts 248°
2026-05-04 15:52 50.14293 8.94424 5003 ft 245 kts 249°
2026-05-04 15:53 50.13737 8.92055 5005 ft 232 kts 248°
2026-05-04 15:53 50.13199 8.89761 5008 ft 222 kts 248°
2026-05-04 15:53 50.12693 8.87610 5006 ft 209 kts 248°
2026-05-04 15:53 50.12203 8.85528 4884 ft 201 kts 248°
2026-05-04 15:54 50.11745 8.83583 4631 ft 193 kts 248°
2026-05-04 15:54 50.11287 8.81640 4358 ft 187 kts 249°
2026-05-04 15:54 50.10850 8.79785 4110 ft 179 kts 249°
2026-05-04 15:54 50.10449 8.78088 3869 ft 173 kts 250°
2026-05-04 15:55 50.10041 8.76360 3623 ft 172 kts 250°
2026-05-04 15:55 50.09629 8.74617 3398 ft 170 kts 250°
2026-05-04 15:55 50.09231 8.72934 3155 ft 173 kts 251°
2026-05-04 15:55 50.08817 8.71183 2906 ft 174 kts 252°
2026-05-04 15:56 50.08401 8.69433 2669 ft 173 kts 252°
2026-05-04 15:56 50.07986 8.67681 2411 ft 173 kts 252°
2026-05-04 15:56 50.07573 8.65943 2165 ft 172 kts 252°
2026-05-04 15:56 50.07168 8.64234 1932 ft 168 kts 253°
2026-05-04 15:57 50.06786 8.62631 1703 ft 150 kts 251°
2026-05-04 15:57 50.06442 8.61186 1492 ft 140 kts 251°
2026-05-04 15:57 50.06115 8.59808 1318 ft 134 kts 251°
2026-05-04 15:57 50.05795 8.58465 1109 ft 132 kts 251°
2026-05-04 15:58 50.05477 8.57119 920 ft 134 kts 251°
2026-05-04 15:58 50.05150 8.55780 756 ft 131 kts 252°
2026-05-04 15:58 50.04834 8.54461 590 ft 132 kts 254°
2026-05-04 15:58 50.04518 8.53132 376 ft 131 kts 254°
2026-05-04 15:59 50.04237 8.51928 335 ft 96 kts 249°
2026-05-04 15:59 50.04083 8.51282 331 ft 50 kts 248°
2026-05-04 15:59 50.03919 8.50933 326 ft 31 kts 217°
2026-05-04 15:59 50.03852 8.50858 326 ft 5 kts 214°
2026-05-04 16:00 50.03840 8.50848 330 ft 0 kts 203°
2026-05-04 16:00 50.03838 8.50847 330 ft 0 kts 198°
2026-05-04 16:01 50.03834 8.50846 327 ft 3 kts 193°
2026-05-04 16:01 50.03787 8.50869 331 ft 13 kts 133°
2026-05-04 16:01 50.03745 8.51013 335 ft 6 kts 84°
2026-05-04 16:02 50.03779 8.51061 335 ft 9 kts 41°
2026-05-04 16:02 50.03846 8.51196 334 ft 20 kts 65°
2026-05-04 16:02 50.03950 8.51624 335 ft 23 kts 71°
2026-05-04 16:03 50.04005 8.51862 335 ft 24 kts 69°
2026-05-04 16:03 50.04065 8.52109 340 ft 25 kts 70°
2026-05-04 16:03 50.04125 8.52363 351 ft 25 kts 70°
2026-05-04 16:03 50.04188 8.52619 352 ft 26 kts 69°
2026-05-04 16:04 50.04249 8.52881 357 ft 26 kts 70°
2026-05-04 16:04 50.04356 8.53314 372 ft 24 kts 70°
2026-05-04 16:04 50.04398 8.53542 375 ft 21 kts 82°
2026-05-04 16:05 50.04411 8.53766 375 ft 21 kts 84°
2026-05-04 16:05 50.04426 8.53981 375 ft 20 kts 84°
2026-05-04 16:05 50.04450 8.54341 374 ft 13 kts 84°
2026-05-04 16:06 50.04449 8.54496 368 ft 16 kts 99°
2026-05-04 16:06 50.04151 8.54862 357 ft 22 kts 160°
2026-05-04 16:07 50.04075 8.54909 356 ft 2 kts 159°
2026-05-04 16:08 50.04018 8.54941 352 ft 17 kts 161°
2026-05-04 16:09 50.03860 8.55160 349 ft 17 kts 70°
2026-05-04 16:09 50.03932 8.55461 357 ft 13 kts 68°
2026-05-04 16:10 50.04036 8.55894 352 ft 26 kts 70°
2026-05-04 16:11 50.04218 8.56649 360 ft 12 kts 71°
2026-05-04 16:11 50.04224 8.56676 362 ft 0 kts 70°
2026-05-04 16:12 50.04224 8.56678 362 ft 1 kts 70°
2026-05-04 16:12 50.04472 8.56863 359 ft 17 kts 11°
2026-05-04 16:13 50.04534 8.56775 364 ft 0 kts 295°
2026-05-04 16:13 50.04545 8.56740 362 ft 0 kts 295°